| time (UTC) | temp C | wind direction | speed KPH | gust KPH | rain 1hr cm | rain 24hr cm | rain mn cm | humidity % | barometer mb |
| 20260506061542 | 6 | 62 | 12.9 | 17.7 | 0.20 | 0.81 | 0.41 | 95 | 1009.6 |
| 20260506044637 | 7 | 96 | 4.8 | 9.7 | 0.13 | 0.51 | 0.10 | 94 | 1009.8 |
| 20260506043047 | 7 | 92 | 9.7 | 16.1 | 0.10 | 0.48 | 0.08 | 94 | 1009.4 |
| 20260506041558 | 7 | 91 | 4.8 | 9.7 | 0.08 | 0.46 | 0.05 | 94 | 1009.8 |
| 20260506040047 | 7 | 52 | 4.8 | 9.7 | 0.03 | 0.41 | 0.00 | 94 | 1009.8 |
| 20260506034619 | 7 | 0 | 0.0 | 0.0 | 0.00 | 0.38 | 0.38 | 93 | 1010.2 |
| 20260506033043 | 7 | 0 | 1.6 | 4.8 | 0.03 | 0.38 | 0.38 | 94 | 1009.7 |
| 20260506031544 | 7 | 0 | 1.6 | 6.4 | 0.05 | 0.38 | 0.38 | 93 | 1009.8 |
| 20260506030044 | 7 | 223 | 1.6 | 4.8 | 0.08 | 0.38 | 0.38 | 93 | 1010.0 |
| 20260506024548 | 7 | 223 | 3.2 | 8.0 | 0.10 | 0.38 | 0.38 | 93 | 1010.1 |
| 20260506023101 | 7 | 223 | 4.8 | 8.0 | 0.08 | 0.36 | 0.36 | 93 | 1010.3 |
| 20260506021543 | 7 | 223 | 0.0 | 4.8 | 0.08 | 0.33 | 0.33 | 92 | 1010.4 |
| 20260506020047 | 7 | 0 | 0.0 | 0.0 | 0.05 | 0.30 | 0.30 | 92 | 1010.4 |
| 20260506014544 | 7 | 0 | 0.0 | 0.0 | 0.08 | 0.28 | 0.28 | 92 | 1010.4 |
| 20260506013046 | 7 | 0 | 0.0 | 0.0 | 0.10 | 0.28 | 0.28 | 92 | 1010.2 |
| 20260506011603 | 7 | 0 | 0.0 | 3.2 | 0.08 | 0.25 | 0.25 | 91 | 1009.9 |
| 20260506010056 | 7 | 0 | 0.0 | 6.4 | 0.10 | 0.25 | 0.25 | 91 | 1009.7 |
| 20260506004602 | 7 | 223 | 3.2 | 6.4 | 0.05 | 0.20 | 0.20 | 91 | 1009.5 |
| 20260506003056 | 7 | 223 | 3.2 | 6.4 | 0.05 | 0.18 | 0.18 | 91 | 1009.3 |
| 20260506001552 | 7 | 240 | 4.8 | 12.9 | 0.10 | 0.18 | 0.18 | 90 | 1009.1 |
| 20260506000047 | 7 | 280 | 11.3 | 16.1 | 0.10 | 0.15 | 0.15 | 90 | 1009.0 |
| 20260505234614 | 7 | 292 | 11.3 | 19.3 | 0.15 | 0.15 | 0.15 | 90 | 1009.1 |
| 20260505233045 | 7 | 298 | 16.1 | 20.9 | 0.13 | 0.13 | 0.13 | 90 | 1009.3 |
| 20260505231548 | 7 | 287 | 14.5 | 20.9 | 0.08 | 0.08 | 0.08 | 89 | 1008.9 |
| 20260505230046 | 7 | 287 | 17.7 | 25.7 | 0.05 | 0.05 | 0.05 | 88 | 1008.9 |
| 20260505224546 | 7 | 306 | 22.5 | 30.6 | 0.00 | 0.00 | 0.00 | 86 | 1008.6 |
| 20260505223039 | 8 | 281 | 19.3 | 29.0 | 0.00 | 0.00 | 0.00 | 86 | 1008.5 |
| 20260505221544 | 8 | 281 | 19.3 | 30.6 | 0.00 | 0.00 | 0.00 | 84 | 1007.8 |
| 20260505220059 | 10 | 288 | 20.9 | 27.4 | 0.00 | 0.00 | 0.00 | 83 | 1007.5 |
| 20260505214543 | 10 | 281 | 19.3 | 25.7 | 0.00 | 0.00 | 0.00 | 84 | 1006.8 |
| 20260505213041 | 10 | 292 | 20.9 | 30.6 | 0.00 | 0.00 | 0.00 | 82 | 1006.3 |
| 20260505211551 | 11 | 279 | 19.3 | 22.5 | 0.00 | 0.00 | 0.00 | 82 | 1006.1 |
| 20260505210045 | 12 | 275 | 16.1 | 22.5 | 0.00 | 0.00 | 0.00 | 81 | 1005.7 |
| 20260505204547 | 11 | 286 | 14.5 | 19.3 | 0.00 | 0.00 | 0.00 | 83 | 1005.4 |
| 20260505203042 | 11 | 286 | 17.7 | 20.9 | 0.00 | 0.00 | 0.00 | 84 | 1005.4 |
| 20260505201547 | 10 | 270 | 16.1 | 22.5 | 0.00 | 0.00 | 0.00 | 87 | 1005.4 |
| 20260505200045 | 10 | 283 | 17.7 | 24.1 | 0.00 | 0.00 | 0.00 | 86 | 1005.5 |
| 20260505194547 | 10 | 285 | 19.3 | 25.7 | 0.00 | 0.00 | 0.00 | 85 | 1005.3 |
| 20260505193047 | 10 | 275 | 19.3 | 35.4 | 0.00 | 0.00 | 0.00 | 84 | 1005.0 |
| 20260505191552 | 12 | 314 | 35.4 | 46.7 | 0.00 | 0.00 | 0.00 | 76 | 1004.8 |
| 20260505190042 | 17 | 294 | 32.2 | 51.5 | 0.00 | 0.00 | 0.00 | 66 | 1004.3 |
| 20260505184545 | 19 | 263 | 30.6 | 49.9 | 0.00 | 0.00 | 0.00 | 63 | 1004.1 |
| 20260505183045 | 19 | 227 | 24.1 | 43.5 | 0.00 | 0.00 | 0.00 | 64 | 1004.0 |
| 20260505181546 | 18 | 251 | 40.2 | 54.7 | 0.00 | 0.00 | 0.00 | 64 | 1004.2 |
| 20260505180052 | 18 | 244 | 32.2 | 53.1 | 0.00 | 0.00 | 0.00 | 63 | 1003.8 |
| 20260505174606 | 19 | 248 | 33.8 | 49.9 | 0.00 | 0.00 | 0.00 | 65 | 1004.2 |
| 20260505173046 | 18 | 271 | 27.4 | 43.5 | 0.00 | 0.00 | 0.00 | 67 | 1003.7 |
| 20260505171546 | 17 | 253 | 20.9 | 48.3 | 0.00 | 0.00 | 0.00 | 69 | 1003.6 |
| 20260505170108 | 15 | 265 | 25.7 | 43.5 | 0.00 | 0.00 | 0.00 | 75 | 1003.7 |
| 20260505164549 | 13 | 294 | 20.9 | 32.2 | 0.00 | 0.00 | 0.00 | 77 | 1003.9 |
| 20260505163046 | 13 | 280 | 19.3 | 30.6 | 0.00 | 0.00 | 0.00 | 78 | 1003.9 |
| 20260505161553 | 14 | 292 | 24.1 | 30.6 | 0.00 | 0.00 | 0.00 | 73 | 1003.6 |
| 20260505153056 | 21 | 240 | 22.5 | 40.2 | 0.00 | 0.00 | 0.00 | 59 | 1002.6 |
| 20260505151551 | 21 | 254 | 19.3 | 32.2 | 0.00 | 0.00 | 0.00 | 60 | 1002.8 |
| 20260505124546 | 21 | 213 | 19.3 | 38.6 | 0.00 | 0.00 | 0.00 | 61 | 1002.0 |
| 20260505123109 | 20 | 226 | 22.5 | 35.4 | 0.00 | 0.00 | 0.00 | 62 | 1002.0 |
| 20260505121549 | 20 | 234 | 17.7 | 32.2 | 0.00 | 0.00 | 0.00 | 63 | 1002.0 |
| 20260505120048 | 20 | 198 | 20.9 | 37.0 | 0.00 | 0.00 | 0.00 | 63 | 1001.9 |
| 20260505114606 | 19 | 225 | 19.3 | 35.4 | 0.00 | 0.00 | 0.00 | 64 | 1001.9 |
| 20260505113042 | 18 | 227 | 16.1 | 33.8 | 0.00 | 0.00 | 0.00 | 66 | 1001.7 |
| 20260505111602 | 17 | 182 | 17.7 | 30.6 | 0.00 | 0.00 | 0.00 | 69 | 1001.3 |
| 20260505101541 | 16 | 194 | 14.5 | 25.7 | 0.00 | 0.00 | 0.00 | 73 | 1001.0 |
| 20260505100048 | 16 | 215 | 17.7 | 30.6 | 0.00 | 0.00 | 0.00 | 73 | 1001.0 |
| 20260505094547 | 16 | 177 | 19.3 | 30.6 | 0.00 | 0.00 | 0.00 | 74 | 1000.8 |
| 20260505093043 | 16 | 186 | 20.9 | 30.6 | 0.00 | 0.00 | 0.00 | 75 | 1000.9 |
| 20260505091545 | 16 | 171 | 19.3 | 33.8 | 0.00 | 0.00 | 0.00 | 76 | 1001.3 |
| 20260505090052 | 16 | 188 | 12.9 | 24.1 | 0.00 | 0.00 | 0.00 | 77 | 1001.6 |
| 20260505084545 | 16 | 175 | 11.3 | 19.3 | 0.00 | 0.00 | 0.00 | 76 | 1001.6 |
| 20260505083059 | 16 | 176 | 11.3 | 22.5 | 0.00 | 0.00 | 0.00 | 75 | 1001.7 |
| 20260505081551 | 16 | 213 | 11.3 | 22.5 | 0.00 | 0.00 | 0.00 | 76 | 1001.8 |
| 20260505080046 | 16 | 210 | 14.5 | 27.4 | 0.00 | 0.00 | 0.00 | 75 | 1001.9 |
| 20260505074545 | 17 | 239 | 19.3 | 37.0 | 0.00 | 0.00 | 0.00 | 74 | 1002.1 |
| 20260505073043 | 18 | 207 | 16.1 | 38.6 | 0.00 | 0.00 | 0.00 | 68 | 1001.9 |
| 20260505071541 | 18 | 202 | 16.1 | 32.2 | 0.00 | 0.00 | 0.00 | 65 | 1002.1 |
| 20260505070053 | 18 | 220 | 14.5 | 25.7 | 0.00 | 0.00 | 0.00 | 65 | 1002.1 |
| 20260505064557 | 18 | 220 | 16.1 | 27.4 | 0.00 | 0.00 | 0.00 | 64 | 1002.0 |